Hourly Data Report for November 07, 2017

All times are specified in Local Standard Time (LST). Add 1 hour to adjust for Daylight Saving Time where and when it is observed.

MAYO A
YUKON TERRITORY

63°36'59.000" N
135°52'06.000" W
503.80 m
2100701
71965
YMA

Download Data

Hourly Data (November 2017)
Hourly Data Report for November 7, 2017
Temp Definition
°C
Dew Point Temp Definition
°C
Rel Hum Definition
%
Wind Dir Definition
10's deg

Wind Spd Definition
km/h
Visibility Definition
km
Stn Press Definition
kPa
Hmdx Definition


Wind Chill Definition


Weather Definition


TIME
00:00 Legend Double Dagger -19.1 -21.4 82 36 3 32.2 97.13   -22 LegendNANA
01:00 Legend Double Dagger -20.4 -22.7 82 31 5 32.2 97.11   -25 Mainly Clear
02:00 Legend Double Dagger -21.8 -24.3 81 36 1 32.2 97.11   -23 LegendNANA
03:00 Legend Double Dagger -20.4 -22.7 82 36 2 32.2 97.10   -22 LegendNANA
04:00 Legend Double Dagger -19.0 -21.3 83 7 3 24.1 97.09   -21 Cloudy
05:00 Legend Double Dagger -18.3 -20.6 83 0 1 24.1 97.07   -19 LegendNANA
06:00 Legend Double Dagger -17.9 -20.1 83 36 1 16.1 97.07   -19 Snow
07:00 Legend Double Dagger -17.3 -19.5 83 36 2 12.9 97.07   -19 Snow
08:00 Legend Double Dagger -17.0 -19.1 84 36 2 12.9 97.05   -19 Snow
09:00 Legend Double Dagger -16.6 -18.4 86 36 2 8.1 97.06   -18 Snow
10:00 Legend Double Dagger -16.5 -18.3 86 36 1 2.4 97.06   -17 Snow,Fog
11:00 Legend Double Dagger -16.1 -18.1 85 8 4 2.4 97.08   -19 Snow,Fog
12:00 Legend Double Dagger -15.6 -17.6 85 36 1 0.6 97.07   -16 Snow,Freezing Fog
13:00 Legend Double Dagger -15.2 -17.1 86 36 2 8.1 97.04   -17 Snow
14:00 Legend Double Dagger -14.9 -16.8 86 36 2 32.2 96.98   -16 Snow
15:00 Legend Double Dagger -15.0 -16.9 86 14 5 32.2 96.94   -19 Snow
16:00 Legend Double Dagger -14.9 -16.8 86 9 5 32.2 96.93   -18 Snow
17:00 Legend Double Dagger -15.8 -17.8 85 12 4 24.1 96.87   -19 Snow
18:00 Legend Double Dagger -16.2 -18.2 85 9 10 24.1 96.81   -23 LegendNANA
19:00 Legend Double Dagger -16.8 -18.8 84 11 10 24.1 96.79   -23 Cloudy
20:00 Legend Double Dagger -17.3 -19.4 84 12 8 24.1 96.78   -23 LegendNANA
21:00 Legend Double Dagger -18.0 -20.2 83 7 4 24.1 96.76   -21 LegendNANA
22:00 Legend Double Dagger -18.7 -21.0 83 36 3 24.1 96.75   -21 Cloudy
23:00 Legend Double Dagger -18.9 -21.2 83 7 4 24.1 96.75   -22 LegendNANA

Notes on Data Quality.

Legend

  • E = Estimated
  • M = Missing
  • NA = Not Available
  • ‡ = Partner data that is not subject to review by the National Climate Archives
Date modified: